Location: Briis
(48.6240°N, 2.1211°E)
Time: 06:28:04
(UTC+00:00)

CZ-4C R/B - Pass Details

Date: 25 September 2020
Orbit: 627 x 1375 km, 63.4° (Epoch: 21 October)

Event Time Altitude Azimuth Distance (km) Brightness Sun altitude
Exits shadow 00:30:26 20° 336° (NNW) 2,024 4.5 -41.3°
Maximum altitude 00:31:56 22° 356° (N) 1,996 4.5 -41.2°
Drops below altitude 10° 00:37:11 10° 45° (NE) 2,955 5.6 -40.9°
Sets 00:40:50 0° 60° (ENE) 4,054 6.3 -40.7°
